Location: Medlow Airstrip Trail, Medlow Bath NSW 2780, Australia
(33.6682°S, 150.3233°E)
Time: 16:04:32
(UTC+10:00)

LightSail 2 - Pass Details

Date: 27 August 2019
Orbit: 700 x 732 km, 24.0° (Epoch: 19 September)

Event Time Altitude Azimuth Distance (km) Brightness Sun altitude
Exits shadow 05:37:40 - 307° (NW) 2,684 7.7 -10.4°
Reaches altitude 10° 05:39:12 10° 316° (NW) 2,203 7.3 -10.1°
Maximum altitude 05:43:23 24° 9° (N) 1,458 6.9 -9.2°
Drops below altitude 10° 05:47:36 10° 62° (ENE) 2,221 9.0 -8.4°
Sets 05:50:27 0° 75° (ENE) 3,146 10.8 -7.8°
